Regional Weather Roundup
Issued by NWS

Home | Current Version | Previous Version | Text Only | Print | Product List | Glossary Off
Versions: 1 2 3 4 5 6 7 8 9 10 11 12 13 14 15 16 17 18 19 20 21 22 23 24 25 26 27 28 29 30 31 32 33 34 35 36 37 38 39 40 41 42 43 44 45 46 47 48 49 50

459
ASUS43 KLSX 301807
RWRMO

WEATHER SUMMARY FOR MISSOURI
NATIONAL WEATHER SERVICE SPRINGFIELD MO
100 PM CDT SAT APR 30 2016

NOTE: "FAIR" INDICATES FEW OR NO CLOUDS BELOW 12,000 FEET WITH NO
       SIGNIFICANT WEATHER AND/OR OBSTRUCTIONS TO VISIBILITY.
       CURRENT SKY AND/OR WEATHER CONDITIONS ARE NOT AVAILABLE FOR
       CHILLICOTHE AND FARMINGTON.

MOZ001>031-035>038-043-044-053-054-301900-
...NORTHERN AND WESTERN MISSOURI...

CITY           SKY/WX    TMP DP  RH WIND       PRES   REMARKS
KANSAS CTY INT CLOUDY    61  55  81 SW15G24   29.71R
6HR MIN TEMP:  56; 6HR MAX TEMP:  67; 6HR PCP:  0.01;

KANSAS C DTWN  CLOUDY    64  54  69 SW14G24   29.70R
6HR MIN TEMP:  59; 6HR MAX TEMP:  70; 6HR PCP:  0.01;

LEE`S SUMMIT   PTSUNNY   62  55  77 SW21G29   29.71R
6HR MIN TEMP:  59; 6HR MAX TEMP:  69; 6HR PCP:  0.01;

ST JOSEPH      CLOUDY    62  57  83 SW16G22   29.69R
6HR MIN TEMP:  52; 6HR MAX TEMP:  62; 6HR PCP:  0.03;

CHILLICOTHE      N/A     62  59  90 SE3       29.68F
6HR MIN TEMP:  53; 6HR MAX TEMP:  62; 6HR PCP:  0.09;

KIRKSVILLE     CLOUDY    57  56  96 E7        29.70S
6HR MIN TEMP:  50; 6HR MAX TEMP:  57; 6HR PCP:  0.12;


$$
MOZ066>068-077>081-088>096-101>105-301900-
...SOUTHWEST MISSOURI...

CITY           SKY/WX    TMP DP  RH WIND       PRES   REMARKS
SPRINGFIELD    CLOUDY    71  60  68 SW15      29.72F
6HR MIN TEMP:  63; 6HR MAX TEMP:  72;

JOPLIN         CLOUDY    67  59  75 SW12      29.76R
6HR MIN TEMP:  63; 6HR MAX TEMP:  67;

BRANSON        CLOUDY    72  63  73 SW6       29.75F

$$
MOZ032>034-039>042-045>050-055>058-069>072-301900-
...CENTRAL MISSOURI...

CITY           SKY/WX    TMP DP  RH WIND       PRES   REMARKS
COLUMBIA       CLOUDY    72  64  76 SW13      29.69F
6HR MIN TEMP:  58; 6HR MAX TEMP:  72; 6HR PCP:  0.02;

JEFFERSON CITY CLOUDY    71  62  73 SW7       29.69F
6HR MIN TEMP:  59; 6HR MAX TEMP:  71; 6HR PCP: TRACE;

ROLLA          CLOUDY    67  63  87 S12       29.72F
6HR MIN TEMP:  60; 6HR MAX TEMP:  67; 6HR PCP:  0.04;

SEDALIA        MOSUNNY   73  57  57 SW20G28   29.69R
6HR MIN TEMP:  60; 6HR MAX TEMP:  73; 6HR PCP: TRACE;

WHITEMAN AFB   MOSUNNY   72  57  58 SW20G25   29.67R
WARRENSBURG    MOSUNNY   70  55  60 SW17G25   29.68R
OSAGE BEACH    CLOUDY    72  57  60 SW10      29.71F

$$
MOZ051-052-059>065-301900-
...EAST CENTRAL MISSOURI...

CITY           SKY/WX    TMP DP  RH WIND       PRES   REMARKS
ST LOUIS INTL  CLOUDY    67  61  81 S8        29.75S
6HR MIN TEMP:  59; 6HR MAX TEMP:  67; 6HR PCP:  0.12;

SPIRIT OF STL  CLOUDY    67  63  87 S8        29.72F
6HR MIN TEMP:  59; 6HR MAX TEMP:  67; 6HR PCP:  0.07;

ST CHARLES     CLOUDY    66  63  90 SE9       29.73F
6HR MIN TEMP:  58; 6HR MAX TEMP:  66; 6HR PCP:  0.09;


$$
MOZ072>076-082>087-097>100-106>115-301900-
...SOUTH CENTRAL AND SOUTHEAST MISSOURI...

CITY           SKY/WX    TMP DP  RH WIND       PRES   REMARKS
CAPE GIRARDEAU CLOUDY    71  63  75 S9        29.80F
6HR MIN TEMP:  60; 6HR MAX TEMP:  71; 6HR PCP:  0.08;

FARMINGTON     CLOUDY    68  62  81 SW10      29.78R
6HR MIN TEMP:  59; 6HR MAX TEMP:  68; 6HR PCP:  0.10;

POPLAR BLUFF   CLOUDY    69  61  75 S13       29.79F
6HR MIN TEMP:  62; 6HR MAX TEMP:  70; 6HR PCP:  0.05;

WEST PLAINS    CLOUDY    67  60  78 S8        29.78S
6HR MIN TEMP:  61; 6HR MAX TEMP:  67; 6HR PCP: TRACE;


$$



USA.gov is the U.S. government's official web portal to all federal, state and local government web resources and services.